Time,TemperatureF,DewpointF,PressureIn,WindDirection,WindDirectionDegrees,WindSpeedMPH,WindSpeedGustMPH,Humidity,HourlyPrecipIn,Conditions,Clouds,dailyrainin,SoftwareType,DateUTC
2013-01-29 00:14:00,61.1,57.5,30.05,SE,140,2.0,8.0,88,0.00,,,0.00,VWS V14.01,2013-01-29 06:14:00,
2013-01-29 00:29:00,61.3,58.0,30.04,SSE,155,6.0,12.0,89,0.00,,,0.00,VWS V14.01,2013-01-29 06:29:00,
2013-01-29 00:44:00,61.3,58.0,30.04,SE,146,6.0,12.0,89,0.00,,,0.00,VWS V14.01,2013-01-29 06:44:00,
2013-01-29 00:59:00,61.3,58.0,30.03,SSW,203,2.0,9.0,89,0.00,,,0.00,VWS V14.01,2013-01-29 06:59:00,
2013-01-29 01:14:00,60.9,58.0,30.02,ESE,115,2.0,9.0,90,0.00,,,0.00,VWS V14.01,2013-01-29 07:14:00,
2013-01-29 01:29:00,60.5,57.6,30.01,SW,221,1.0,9.0,90,0.00,,,0.00,VWS V14.01,2013-01-29 07:29:00,
2013-01-29 01:44:00,60.1,57.5,30.01,SE,140,4.0,12.0,91,0.00,,,0.00,VWS V14.01,2013-01-29 07:44:00,
2013-01-29 01:59:00,60.1,57.5,30.01,ESE,113,3.0,9.0,91,0.00,,,0.00,VWS V14.01,2013-01-29 07:59:00,
2013-01-29 02:14:00,59.8,57.5,30.00,ENE,78,1.0,8.0,92,0.00,,,0.00,VWS V14.01,2013-01-29 08:14:00,
2013-01-29 02:29:00,59.6,57.3,30.00,East,94,3.0,11.0,92,0.00,,,0.00,VWS V14.01,2013-01-29 08:29:00,
2013-01-29 02:44:00,59.5,57.2,29.99,East,79,3.0,8.0,92,0.00,,,0.00,VWS V14.01,2013-01-29 08:44:00,
2013-01-29 02:59:00,59.5,57.5,29.99,East,96,4.0,8.0,93,0.00,,,0.00,VWS V14.01,2013-01-29 08:59:00,
2013-01-29 03:14:00,59.5,57.5,29.98,SSE,155,0.0,6.0,93,0.00,,,0.00,VWS V14.01,2013-01-29 09:14:00,
2013-01-29 03:29:00,59.8,57.8,29.97,SSE,164,2.0,6.0,93,0.00,,,0.00,VWS V14.01,2013-01-29 09:29:00,
2013-01-29 03:44:00,59.8,57.8,29.97,SE,142,1.0,9.0,93,0.00,,,0.00,VWS V14.01,2013-01-29 09:44:00,
2013-01-29 03:59:00,59.9,58.2,29.97,SE,134,1.0,7.0,94,0.00,,,0.00,VWS V14.01,2013-01-29 09:59:00,
2013-01-29 04:14:00,60.1,58.4,29.98,SE,140,2.0,7.0,94,0.00,,,0.00,VWS V14.01,2013-01-29 10:14:00,
2013-01-29 04:29:00,60.6,58.9,29.99,SSW,207,4.0,7.0,94,0.00,,,0.00,VWS V14.01,2013-01-29 10:29:00,
2013-01-29 04:44:00,61.3,59.3,30.00,SSE,159,2.0,10.0,93,0.00,,,0.00,VWS V14.01,2013-01-29 10:44:00,
2013-01-29 04:59:00,62.4,59.7,30.00,South,188,4.0,17.0,91,0.00,,,0.00,VWS V14.01,2013-01-29 10:59:00,
2013-01-29 05:14:00,62.7,59.4,30.00,SW,225,2.0,13.0,89,0.00,,,0.00,VWS V14.01,2013-01-29 11:14:00,
2013-01-29 05:29:00,62.7,59.4,30.00,SW,217,2.0,11.0,89,0.00,,,0.00,VWS V14.01,2013-01-29 11:29:00,
2013-01-29 05:44:00,62.8,59.2,30.00,SW,215,8.0,12.0,88,0.00,,,0.00,VWS V14.01,2013-01-29 11:44:00,
2013-01-29 05:59:00,62.9,59.3,30.00,South,186,8.0,10.0,88,0.00,,,0.00,VWS V14.01,2013-01-29 11:59:00,
2013-01-29 06:14:00,63.0,59.4,30.00,SSW,200,5.0,11.0,88,0.00,,,0.00,VWS V14.01,2013-01-29 12:14:00,
2013-01-29 06:29:00,63.0,59.7,30.00,SSW,200,2.0,9.0,89,0.00,,,0.00,VWS V14.01,2013-01-29 12:29:00,
2013-01-29 06:44:00,63.1,59.8,29.99,SE,128,4.0,9.0,89,0.00,,,0.00,VWS V14.01,2013-01-29 12:44:00,
2013-01-29 06:59:00,63.3,59.7,30.00,South,178,4.0,9.0,88,0.00,,,0.00,VWS V14.01,2013-01-29 12:59:00,
2013-01-29 07:14:00,63.4,59.8,29.99,South,179,1.0,7.0,88,0.00,,,0.00,VWS V14.01,2013-01-29 13:14:00,
2013-01-29 07:29:00,63.6,60.0,29.99,SSW,194,7.0,9.0,88,0.00,,,0.00,VWS V14.01,2013-01-29 13:29:00,
2013-01-29 07:44:00,64.1,60.2,29.99,SSW,193,6.0,10.0,87,0.00,,,0.00,VWS V14.01,2013-01-29 13:44:00,
2013-01-29 07:59:00,64.2,59.9,29.98,SE,141,0.0,7.0,86,0.00,,,0.00,VWS V14.01,2013-01-29 13:59:00,
2013-01-29 08:14:00,63.9,60.0,29.97,SE,126,2.0,7.0,87,0.00,,,0.00,VWS V14.01,2013-01-29 14:14:00,
2013-01-29 08:29:00,63.8,60.2,29.97,SE,129,1.0,6.0,88,0.00,,,0.00,VWS V14.01,2013-01-29 14:29:00,
2013-01-29 08:44:00,64.1,60.5,29.95,ESE,118,5.0,14.0,88,0.00,,,0.00,VWS V14.01,2013-01-29 14:44:00,
2013-01-29 08:59:00,64.7,61.1,29.95,SSE,161,2.0,12.0,88,0.00,,,0.00,VWS V14.01,2013-01-29 14:59:00,
2013-01-29 09:14:00,65.4,61.1,29.95,SE,146,3.0,10.0,86,0.00,,,0.00,VWS V14.01,2013-01-29 15:14:00,
2013-01-29 09:29:00,66.1,61.5,29.94,SW,226,2.0,10.0,85,0.00,,,0.00,VWS V14.01,2013-01-29 15:29:00,
2013-01-29 09:44:00,66.6,61.6,29.94,SW,226,8.0,10.0,84,0.00,,,0.00,VWS V14.01,2013-01-29 15:44:00,
2013-01-29 09:59:00,67.2,61.9,29.93,East,101,3.0,15.0,83,0.00,,,0.00,VWS V14.01,2013-01-29 15:59:00,
2013-01-29 10:14:00,67.9,61.5,29.92,SSW,202,5.0,16.0,80,0.00,,,0.00,VWS V14.01,2013-01-29 16:14:00,
2013-01-29 10:29:00,68.4,61.6,29.92,SE,134,2.0,13.0,79,0.00,,,0.00,VWS V14.01,2013-01-29 16:29:00,
2013-01-29 10:44:00,68.8,61.7,29.91,ESE,118,4.0,14.0,78,0.00,,,0.00,VWS V14.01,2013-01-29 16:44:00,
2013-01-29 10:59:00,69.2,61.7,29.90,South,169,9.0,13.0,77,0.00,,,0.00,VWS V14.01,2013-01-29 16:59:00,
2013-01-29 11:14:00,70.4,61.7,29.89,SE,140,8.0,17.0,74,0.00,,,0.00,VWS V14.01,2013-01-29 17:14:00,
2013-01-29 11:29:00,70.4,61.3,29.88,SSW,197,4.0,15.0,73,0.00,,,0.00,VWS V14.01,2013-01-29 17:29:00,
2013-01-29 11:44:00,70.4,61.0,29.86,SSW,206,1.0,14.0,72,0.00,,,0.00,VWS V14.01,2013-01-29 17:44:00,
2013-01-29 11:59:00,70.6,60.8,29.85,SSW,194,3.0,17.0,71,0.00,,,0.00,VWS V14.01,2013-01-29 17:59:00,
2013-01-29 12:14:00,71.6,60.5,29.85,SW,225,14.0,18.0,68,0.00,,,0.00,VWS V14.01,2013-01-29 18:14:00,
2013-01-29 12:29:00,72.2,60.2,29.83,South,186,10.0,22.0,66,0.00,,,0.00,VWS V14.01,2013-01-29 18:29:00,
2013-01-29 12:44:00,72.7,60.7,29.82,South,188,7.0,17.0,66,0.00,,,0.00,VWS V14.01,2013-01-29 18:44:00,
2013-01-29 12:59:00,72.6,61.0,29.81,SSE,160,6.0,17.0,67,0.00,,,0.00,VWS V14.01,2013-01-29 18:59:00,
2013-01-29 13:14:00,72.7,60.7,29.80,South,174,7.0,20.0,66,0.00,,,0.00,VWS V14.01,2013-01-29 19:14:00,
2013-01-29 13:29:00,73.0,60.5,29.77,SW,232,10.0,17.0,65,0.00,,,0.00,VWS V14.01,2013-01-29 19:29:00,
2013-01-29 13:44:00,73.7,60.8,29.77,SSW,205,4.0,16.0,64,0.00,,,0.00,VWS V14.01,2013-01-29 19:44:00,
2013-01-29 13:59:00,73.1,60.7,29.76,SW,222,4.0,14.0,65,0.00,,,0.00,VWS V14.01,2013-01-29 19:59:00,
2013-01-29 14:14:00,73.7,60.8,29.75,South,169,8.0,15.0,64,0.00,,,0.00,VWS V14.01,2013-01-29 20:14:00,
2013-01-29 14:29:00,73.2,60.7,29.74,SW,225,4.0,16.0,65,0.00,,,0.00,VWS V14.01,2013-01-29 20:29:00,
2013-01-29 14:44:00,73.7,61.2,29.73,ESE,122,2.0,16.0,65,0.00,,,0.00,VWS V14.01,2013-01-29 20:44:00,
2013-01-29 14:59:00,74.4,61.0,29.72,SSE,160,3.0,14.0,63,0.00,,,0.00,VWS V14.01,2013-01-29 20:59:00,
2013-01-29 15:14:00,75.4,61.0,29.72,SSE,148,10.0,17.0,61,0.00,,,0.00,VWS V14.01,2013-01-29 21:14:00,
2013-01-29 15:29:00,75.3,61.4,29.70,South,179,5.0,15.0,62,0.00,,,0.00,VWS V14.01,2013-01-29 21:29:00,
2013-01-29 15:44:00,74.8,61.4,29.70,SSW,197,11.0,14.0,63,0.00,,,0.00,VWS V14.01,2013-01-29 21:44:00,
2013-01-29 15:59:00,74.8,61.4,29.69,SE,129,5.0,12.0,63,0.00,,,0.00,VWS V14.01,2013-01-29 21:59:00,
2013-01-29 16:14:00,74.5,61.1,29.69,South,186,5.0,14.0,63,0.00,,,0.00,VWS V14.01,2013-01-29 22:14:00,
2013-01-29 16:29:00,74.3,60.9,29.69,SSE,153,5.0,9.0,63,0.00,,,0.00,VWS V14.01,2013-01-29 22:29:00,
2013-01-29 16:44:00,74.1,60.7,29.69,South,186,4.0,10.0,63,0.00,,,0.00,VWS V14.01,2013-01-29 22:44:00,
2013-01-29 16:59:00,74.0,60.6,29.68,South,172,7.0,12.0,63,0.00,,,0.00,VWS V14.01,2013-01-29 22:59:00,
2013-01-29 17:14:00,73.7,60.8,29.68,ESE,103,3.0,9.0,64,0.00,,,0.00,VWS V14.01,2013-01-29 23:14:00,
2013-01-29 17:29:00,73.3,60.4,29.67,SW,231,8.0,8.0,64,0.00,,,0.00,VWS V14.01,2013-01-29 23:29:00,
2013-01-29 17:44:00,73.4,60.5,29.66,SSW,204,3.0,12.0,64,0.00,,,0.00,VWS V14.01,2013-01-29 23:44:00,
2013-01-29 17:59:00,73.4,60.5,29.66,SE,140,3.0,11.0,64,0.00,,,0.00,VWS V14.01,2013-01-29 23:59:00,
2013-01-29 18:14:00,73.4,60.5,29.66,SE,146,2.0,11.0,64,0.00,,,0.00,VWS V14.01,2013-01-30 00:14:00,
2013-01-29 18:29:00,73.4,60.9,29.65,South,186,8.0,11.0,65,0.00,,,0.00,VWS V14.01,2013-01-30 00:29:00,
2013-01-29 18:44:00,73.4,60.9,29.63,ESE,119,10.0,16.0,65,0.00,,,0.00,VWS V14.01,2013-01-30 00:44:00,
2013-01-29 18:59:00,73.2,61.2,29.61,SSE,150,3.0,14.0,66,0.00,,,0.00,VWS V14.01,2013-01-30 00:59:00,
2013-01-29 19:14:00,72.9,61.3,29.60,SSW,204,7.0,16.0,67,0.00,,,0.00,VWS V14.01,2013-01-30 01:14:00,
2013-01-29 19:29:00,73.0,61.8,29.60,SSW,194,12.6,25.3,68,0.00,,,0.00,VWS V14.01,2013-01-30 01:29:00,
2013-01-29 19:44:00,73.2,62.4,29.59,South,173,13.8,21.9,69,0.00,,,0.00,VWS V14.01,2013-01-30 01:44:00,
2013-01-29 19:59:00,72.4,62.9,29.58,SE,131,5.8,21.9,72,0.00,,,0.00,VWS V14.01,2013-01-30 01:59:00,
2013-01-29 20:14:00,72.0,63.3,29.58,South,181,12.6,23.0,74,0.00,,,0.00,VWS V14.01,2013-01-30 02:14:00,
2013-01-29 20:29:00,70.2,64.1,29.57,SSE,148,12.6,26.4,81,0.02,,,0.02,VWS V14.01,2013-01-30 02:29:00,
2013-01-29 20:44:00,69.4,64.0,29.55,East,94,9.2,24.1,83,0.03,,,0.03,VWS V14.01,2013-01-30 02:44:00,
2013-01-29 20:59:00,69.4,64.0,29.55,ENE,77,6.9,18.4,83,0.03,,,0.03,VWS V14.01,2013-01-30 02:59:00,
2013-01-29 21:14:00,69.7,64.0,29.53,SSE,155,5.8,19.5,82,0.03,,,0.03,VWS V14.01,2013-01-30 03:14:00,
2013-01-29 21:29:00,69.8,64.1,29.50,East,94,12.6,19.5,82,0.03,,,0.03,VWS V14.01,2013-01-30 03:29:00,
2013-01-29 21:44:00,70.1,64.0,29.50,SW,215,4.6,24.1,81,0.01,,,0.03,VWS V14.01,2013-01-30 03:44:00,
2013-01-29 21:59:00,70.2,64.1,29.49,SSE,152,19.5,20.7,81,0.00,,,0.03,VWS V14.01,2013-01-30 03:59:00,
2013-01-29 22:14:00,70.6,64.1,29.49,ESE,118,5.8,27.6,80,0.00,,,0.03,VWS V14.01,2013-01-30 04:14:00,
2013-01-29 22:29:00,70.8,64.0,29.49,SE,144,10.3,21.9,79,0.00,,,0.03,VWS V14.01,2013-01-30 04:29:00,
2013-01-29 22:44:00,70.7,64.6,29.48,ESE,120,11.5,23.0,81,0.01,,,0.04,VWS V14.01,2013-01-30 04:44:00,
2013-01-29 22:59:00,69.4,64.4,29.45,South,178,9.2,21.9,84,0.03,,,0.06,VWS V14.01,2013-01-30 04:59:00,
2013-01-29 23:14:00,69.4,64.4,29.48,SW,219,9.2,25.3,84,0.03,,,0.06,VWS V14.01,2013-01-30 05:14:00,
2013-01-29 23:29:00,66.8,62.2,29.51,NNW,327,2.3,16.1,85,0.06,,,0.09,VWS V14.01,2013-01-30 05:29:00,
2013-01-29 23:44:00,63.6,61.5,29.52,SSW,211,12.6,25.3,93,0.78,,,0.81,VWS V14.01,2013-01-30 05:44:00,
2013-01-29 23:59:00,64.2,63.0,29.52,SSW,203,13.8,26.4,96,1.26,,,1.30,VWS V14.01,2013-01-30 05:59:00,